STARLINK-32860, 62856

Orbit data source: Space-Track

STARLINK-32860, 62856 is a payload satellite owned by SpaceX/Seattle (US) in LEO that was launched on Sat, 01 Feb 2025 UTC via an FALCON 9 launch vehicle from the Air Force Western Test Range (AFWTR). Payload-class satellites include a variety of spacecraft equipped with specific instruments for various scientific and technological missions. These include communications satellites like Starlink; space stations such as the ISS; scientific satellites like the Hubble; Earth observation satellites from companies like Planet Labs, Umbra, and HawkEye 360; GPS; miniature CubeSats for education and research; and military/defense satellites.

Loading next visibility...
Identifier
62856, 2025-022C
Orbit
LEO
Country
Flag of USUS
Related business
Manufacturer
SpaceX/Seattle
Mission
Operational Commercial Communications
Bus & Motor
STARLINK V2M, Unknown motor
Mass
730 kg wet, ~700 kg dry
Launch date (UTC)
2025-02-01 (11 months ago)
Launch vehicle
FALCON 9
Launch site
Air Force Western Test Range (AFWTR)
Object type
Payload
Rocket body
Debris
Shape & HBR
Box + 2 Pan, 17.7 m
Radar Cross Section
33.884 m², Large (>1 m²)

Expand to show TLE details & history
Last TLE update: 23 hours ago

TLE from 23 hours ago
0 STARLINK-32860
1 62856U 25022C   25351.76781370  .00021761  00000-0  74468-3 0  9992
2 62856  53.1598 150.4060 0001055  90.3151 269.7971 15.30200644 49353
Epoch: 2025-12-17T18:25Z
TLE epoch observation values (Epoch: 2025-12-17T18:25:39.103Z)
Latitude
-0°
Longitude
147.36013°
Altitude
476.115 km
Speed
7.629 km/s
True Right ascension
10h 01m 37s
True Declination
0° 00' 00"
Sunlit
Object was in full shadow at epoch
Visualization orbit readout
Latitude
Unknown
Longitude
Unknown
Altitude
Unknown
Speed
Unknown
Apparent Right ascension
Unknown
Apparent Declination
Unknown
Sunlit
N/A
Visualization observer readout
Local Sidereal Time
16:10:08
Azimuth
Unknown
Elevation
Unknown
Doppler factor
Unknown
Orbital elements
Apogee altitude
476.193 km
Perigee altitude
474.747 km
Semi-major axis
6,853.607 km
Eccentricity
0.00011
Inclination
53.1598°
RAAN
150.406°
Arg. of periapsis
90.3151°
True anomaly
269.78501°
Mean anomaly
269.7971°
Eccentric anomaly
269.79106°
Mean motion
3.82529 °/min
Orbital period
94.11 mins
BSTAR
0.00074468
Loading maneuver chart data...
Computing Atmospheric mass density...
Loading historical data...
Loading historical data...
Loading historical data...
Loading historical data...
Loading historical data...
Loading historical data...
Loading historical data...

Documentation

Showing up to 5 results
|